When you browse on this site, cookies collect data to enhance your experience and personalize the content and advertising you see.
Visit our Privacy Policy to learn more. By continuing to use the site, you agree to this use of cookies and data.
  • In Österreich
  • Länderverzeichnis
  • Für 7 Tage
  • Wassertemperatur
  • Wetterkarte
  • News
  • Widgets
  • user-avatar
    Anmelden

    Stündliche Wetter Calnalí

    Heute, 17 September, Dienstag

    Zeit Temperatur Niederschläge Wind Luftdruck Luftfeuchtigkeit
    00:00 +18°C° 0 mm 1 m/S 655 mmHg 91%
    01:00 +18°C° 0 mm 1 m/S 655 mmHg 91%
    02:00 +18°C° 0 mm 1 m/S 655 mmHg 91%
    03:00 +18°C° 0 mm 1 m/S 655 mmHg 90%
    04:00 +18°C° 0 mm 1 m/S 655 mmHg 90%
    05:00 +18°C° 0 mm 1 m/S 655 mmHg 92%
    06:00 +19°C° 0.1 mm 1 m/S 656 mmHg 88%
    07:00 +19°C° 0.1 mm 0 m/S 656 mmHg 85%
    08:00 +21°C° 0.1 mm 0 m/S 657 mmHg 81%
    09:00 +23°C° 0.3 mm 1 m/S 657 mmHg 78%
    10:00 +24°C° 0.3 mm 1 m/S 657 mmHg 76%
    11:00 +25°C° 0.3 mm 2 m/S 657 mmHg 74%
    12:00 +25°C° 0.4 mm 2 m/S 656 mmHg 76%
    13:00 +25°C° 0.4 mm 2 m/S 656 mmHg 78%
    14:00 +25°C° 0.4 mm 2 m/S 655 mmHg 81%
    15:00 +24°C° 0.4 mm 2 m/S 655 mmHg 85%
    16:00 +23°C° 0.4 mm 1 m/S 654 mmHg 88%
    17:00 +22°C° 0.4 mm 1 m/S 654 mmHg 92%
    18:00 +22°C° 0.2 mm 1 m/S 655 mmHg 94%
    19:00 +21°C° 0.2 mm 1 m/S 655 mmHg 95%
    20:00 +18°C° 0.2 mm 0 m/S 656 mmHg 97%
    21:00 +18°C° 0 mm 0 m/S 655 mmHg 96%
    22:00 +17°C° 0 mm 0 m/S 655 mmHg 96%
    23:00 +19°C° 0 mm 1 m/S 655 mmHg 96%

    Morgen, 18 September, Mittwoch

    Zeit Temperatur Niederschläge Wind Luftdruck Luftfeuchtigkeit
    00:00 +19°C° 0 mm 1 m/S 655 mmHg 96%
    01:00 +19°C° 0 mm 1 m/S 654 mmHg 95%
    02:00 +19°C° 0 mm 1 m/S 654 mmHg 95%
    03:00 +19°C° 0 mm 1 m/S 654 mmHg 94%
    04:00 +18°C° 0 mm 1 m/S 654 mmHg 94%
    05:00 +18°C° 0 mm 1 m/S 654 mmHg 93%
    06:00 +20°C° 0.1 mm 1 m/S 655 mmHg 91%
    07:00 +19°C° 0.1 mm 0 m/S 655 mmHg 89%
    08:00 +20°C° 0.1 mm 0 m/S 656 mmHg 86%
    09:00 +23°C° 0.2 mm 1 m/S 656 mmHg 82%
    10:00 +24°C° 0.2 mm 1 m/S 656 mmHg 78%
    11:00 +25°C° 0.2 mm 2 m/S 656 mmHg 74%
    12:00 +25°C° 1 mm 2 m/S 655 mmHg 78%
    13:00 +24°C° 1 mm 2 m/S 654 mmHg 82%
    14:00 +24°C° 1 mm 2 m/S 654 mmHg 86%
    15:00 +23°C° 1.4 mm 1 m/S 654 mmHg 89%
    16:00 +22°C° 1.4 mm 1 m/S 653 mmHg 92%
    17:00 +22°C° 1.4 mm 1 m/S 653 mmHg 95%
    18:00 +21°C° 1.2 mm 1 m/S 654 mmHg 95%
    19:00 +18°C° 1.2 mm 0 m/S 654 mmHg 96%
    20:00 +18°C° 1.2 mm 0 m/S 655 mmHg 96%
    21:00 +18°C° 1.4 mm 0 m/S 655 mmHg 96%
    22:00 +17°C° 1.4 mm 0 m/S 654 mmHg 96%
    23:00 +17°C° 1.4 mm 0 m/S 654 mmHg 96%

    übermorgen, 19 September, Donnerstag

    Zeit Temperatur Niederschläge Wind Luftdruck Luftfeuchtigkeit
    00:00 +17°C° 0.4 mm 0 m/S 654 mmHg 96%
    01:00 +17°C° 0.4 mm 0 m/S 654 mmHg 96%
    02:00 +17°C° 0.4 mm 0 m/S 653 mmHg 96%
    03:00 +17°C° 0.3 mm 0 m/S 654 mmHg 95%
    04:00 +17°C° 0.3 mm 0 m/S 654 mmHg 95%
    05:00 +17°C° 0.3 mm 0 m/S 654 mmHg 95%
    06:00 +18°C° 0 mm 0 m/S 654 mmHg 93%
    07:00 +21°C° 0 mm 1 m/S 655 mmHg 91%
    08:00 +22°C° 0 mm 1 m/S 655 mmHg 89%
    09:00 +22°C° 0.5 mm 1 m/S 655 mmHg 88%
    10:00 +23°C° 0.5 mm 1 m/S 655 mmHg 87%
    11:00 +24°C° 0.5 mm 1 m/S 654 mmHg 86%
    12:00 +24°C° 1.1 mm 1 m/S 654 mmHg 86%
    13:00 +24°C° 1.1 mm 1 m/S 653 mmHg 86%
    14:00 +24°C° 1.1 mm 1 m/S 653 mmHg 86%
    15:00 +23°C° 0.6 mm 1 m/S 653 mmHg 89%
    16:00 +22°C° 0.6 mm 1 m/S 653 mmHg 91%
    17:00 +22°C° 0.6 mm 1 m/S 653 mmHg 94%
    18:00 +21°C° 0.2 mm 1 m/S 653 mmHg 95%
    19:00 +20°C° 0.2 mm 1 m/S 654 mmHg 96%
    20:00 +20°C° 0.2 mm 1 m/S 654 mmHg 97%
    21:00 +19°C° 0 mm 1 m/S 654 mmHg 96%
    22:00 +19°C° 0 mm 1 m/S 654 mmHg 96%
    23:00 +19°C° 0 mm 1 m/S 654 mmHg 95%

    20 September, Freitag

    Zeit Temperatur Niederschläge Wind Luftdruck Luftfeuchtigkeit
    00:00 +19°C° 0 mm 1 m/S 654 mmHg 95%
    01:00 +18°C° 0 mm 1 m/S 653 mmHg 95%
    02:00 +18°C° 0 mm 1 m/S 653 mmHg 94%
    03:00 +18°C° 0 mm 1 m/S 653 mmHg 94%
    04:00 +18°C° 0 mm 1 m/S 653 mmHg 94%
    05:00 +16°C° 0 mm 0 m/S 653 mmHg 94%
    06:00 +18°C° 0.1 mm 0 m/S 654 mmHg 90%
    07:00 +19°C° 0.1 mm 0 m/S 655 mmHg 86%
    08:00 +21°C° 0.1 mm 0 m/S 656 mmHg 82%
    09:00 +24°C° 0.1 mm 1 m/S 656 mmHg 76%
    10:00 +25°C° 0.1 mm 2 m/S 656 mmHg 71%
    11:00 +26°C° 0.1 mm 2 m/S 656 mmHg 65%
    12:00 +26°C° 0.1 mm 2 m/S 655 mmHg 68%
    13:00 +26°C° 0.1 mm 2 m/S 655 mmHg 70%
    14:00 +25°C° 0.1 mm 3 m/S 654 mmHg 72%
    15:00 +24°C° 0.4 mm 2 m/S 654 mmHg 79%
    16:00 +23°C° 0.4 mm 2 m/S 654 mmHg 86%
    17:00 +22°C° 0.4 mm 1 m/S 654 mmHg 93%
    18:00 +21°C° 0.5 mm 1 m/S 654 mmHg 94%
    19:00 +20°C° 0.5 mm 1 m/S 655 mmHg 95%
    20:00 +18°C° 0.5 mm 0 m/S 655 mmHg 97%
    21:00 +18°C° 0.1 mm 0 m/S 655 mmHg 96%
    22:00 +17°C° 0.1 mm 0 m/S 655 mmHg 96%
    23:00 +17°C° 0.1 mm 0 m/S 655 mmHg 95%

    21 September, Samstag

    Zeit Temperatur Niederschläge Wind Luftdruck Luftfeuchtigkeit
    00:00 +17°C° 0 mm 0 m/S 655 mmHg 95%
    01:00 +17°C° 0 mm 0 m/S 655 mmHg 95%
    02:00 +17°C° 0 mm 0 m/S 655 mmHg 94%
    03:00 +16°C° 0 mm 0 m/S 655 mmHg 94%
    04:00 +16°C° 0 mm 0 m/S 655 mmHg 94%
    05:00 +16°C° 0 mm 0 m/S 655 mmHg 94%
    06:00 +17°C° 0 mm 0 m/S 655 mmHg 91%
    07:00 +19°C° 0 mm 0 m/S 656 mmHg 88%
    08:00 +20°C° 0 mm 0 m/S 657 mmHg 84%
    09:00 +23°C° 0.1 mm 1 m/S 657 mmHg 80%
    10:00 +24°C° 0.1 mm 1 m/S 656 mmHg 76%
    11:00 +25°C° 0.1 mm 2 m/S 656 mmHg 72%
    12:00 +25°C° 0.3 mm 2 m/S 656 mmHg 75%
    13:00 +25°C° 0.3 mm 2 m/S 655 mmHg 78%
    14:00 +24°C° 0.3 mm 2 m/S 654 mmHg 81%
    15:00 +23°C° 0.6 mm 2 m/S 654 mmHg 84%
    16:00 +23°C° 0.6 mm 1 m/S 654 mmHg 88%
    17:00 +22°C° 0.6 mm 1 m/S 654 mmHg 92%
    18:00 +21°C° 0.1 mm 1 m/S 655 mmHg 93%
    19:00 +20°C° 0.1 mm 1 m/S 655 mmHg 95%
    20:00 +17°C° 0.1 mm 0 m/S 656 mmHg 96%
    21:00 +19°C° 0 mm 1 m/S 656 mmHg 96%
    22:00 +18°C° 0 mm 1 m/S 655 mmHg 95%
    23:00 +18°C° 0 mm 1 m/S 655 mmHg 95%

    22 September, Sonntag

    Zeit Temperatur Niederschläge Wind Luftdruck Luftfeuchtigkeit
    00:00 +18°C° 0 mm 1 m/S 655 mmHg 94%
    01:00 +18°C° 0 mm 1 m/S 655 mmHg 94%
    02:00 +16°C° 0 mm 1 m/S 654 mmHg 93%
    03:00 +16°C° 0 mm 1 m/S 654 mmHg 93%
    04:00 +16°C° 0 mm 1 m/S 654 mmHg 93%
    05:00 +16°C° 0 mm 1 m/S 654 mmHg 93%
    06:00 +19°C° 0 mm 1 m/S 655 mmHg 87%
    07:00 +19°C° 0 mm 0 m/S 656 mmHg 82%
    08:00 +21°C° 0 mm 0 m/S 657 mmHg 77%
    09:00 +24°C° 0 mm 1 m/S 657 mmHg 74%
    10:00 +24°C° 0 mm 1 m/S 657 mmHg 71%
    11:00 +25°C° 0 mm 2 m/S 657 mmHg 69%
    12:00 +25°C° 0.1 mm 2 m/S 656 mmHg 73%
    13:00 +24°C° 0.1 mm 2 m/S 655 mmHg 77%
    14:00 +24°C° 0.1 mm 2 m/S 654 mmHg 81%
    15:00 +23°C° 0.3 mm 2 m/S 654 mmHg 84%
    16:00 +23°C° 0.3 mm 1 m/S 654 mmHg 88%
    17:00 +22°C° 0.3 mm 1 m/S 654 mmHg 91%
    18:00 +21°C° 0.1 mm 1 m/S 655 mmHg 93%
    19:00 +20°C° 0.1 mm 1 m/S 655 mmHg 94%
    20:00 +17°C° 0.1 mm 0 m/S 655 mmHg 95%
    21:00 +17°C° 0 mm 0 m/S 655 mmHg 95%
    22:00 +17°C° 0 mm 0 m/S 655 mmHg 95%
    23:00 +17°C° 0 mm 0 m/S 655 mmHg 95%
    Mehr zeigen